owner,sensor,date,latitude,longitude,vertical_datum,wind_speed,wind_to_direction,wind_speed_of_gust,qcFlag 
NDBC,ioos:station:wmo:42003:1,2017-04-01T00:40:00Z,26.0070,-85.6480,5.0,6.0,140.0,7.0,'1111122,1111122,1111122' 
NDBC,ioos:station:wmo:42003:1,2017-04-01T01:40:00Z,26.0070,-85.6480,5.0,6.0,150.0,7.0,'1111122,1111122,1111122' 
NDBC,ioos:station:wmo:42003:1,2017-04-01T02:40:00Z,26.0070,-85.6480,5.0,9.0,160.0,11.0,'1111122,1111122,1111122' 
NDBC,ioos:station:wmo:42003:1,2017-04-01T03:40:00Z,26.0070,-85.6480,5.0,9.0,160.0,10.0,'1111122,1111122,1111122' 
NDBC,ioos:station:wmo:42003:1,2017-04-01T04:40:00Z,26.0070,-85.6480,5.0,6.0,160.0,8.0,'1111122,1111122,1111122' 
NDBC,ioos:station:wmo:42003:1,2017-04-01T05:40:00Z,26.0070,-85.6480,5.0,4.0,160.0,6.0,'1111122,1111122,1111122' 
NDBC,ioos:station:wmo:42003:1,2017-04-01T06:40:00Z,26.0070,-85.6480,5.0,2.0,180.0,3.0,'1111122,1111122,1111122' 
NDBC,ioos:station:wmo:42003:1,2017-04-01T07:40:00Z,26.0070,-85.6480,5.0,1.0,200.0,2.0,'1111122,1111122,1111122' 
NDBC,ioos:station:wmo:42003:1,2017-04-01T08:50:00Z,26.0070,-85.6480,5.0,1.0,360.0,2.0,'1111122,1111122,1111122' 
NDBC,ioos:station:wmo:42003:1,2017-04-01T09:40:00Z,26.0070,-85.6480,5.0,2.0,30.0,3.0,'1111122,1111122,1111122' 
NDBC,ioos:station:wmo:42003:1,2017-04-01T10:40:00Z,26.0070,-85.6480,5.0,2.0,70.0,3.0,'1111122,1111122,1111122' 
NDBC,ioos:station:wmo:42003:1,2017-04-01T11:40:00Z,26.0070,-85.6480,5.0,2.0,80.0,2.0,'1111122,1111122,1111122' 
NDBC,ioos:station:wmo:42003:1,2017-04-01T12:40:00Z,26.0070,-85.6480,5.0,2.0,90.0,3.0,'1111122,1111122,1111122' 
NDBC,ioos:station:wmo:42003:1,2017-04-01T13:40:00Z,26.0070,-85.6480,5.0,3.0,70.0,4.0,'1111122,1111122,1111122' 
NDBC,ioos:station:wmo:42003:1,2017-04-01T14:40:00Z,26.0070,-85.6480,5.0,5.0,100.0,6.0,'1111122,1111122,1111122' 
NDBC,ioos:station:wmo:42003:1,2017-04-01T15:40:00Z,26.0070,-85.6480,5.0,6.0,70.0,7.0,'1111122,1111122,1111122' 
NDBC,ioos:station:wmo:42003:1,2017-04-01T16:40:00Z,26.0070,-85.6480,5.0,6.0,70.0,7.0,'1111122,1111122,1111122' 
NDBC,ioos:station:wmo:42003:1,2017-04-01T17:40:00Z,26.0070,-85.6480,5.0,7.0,90.0,8.0,'1111122,1111122,1111122' 
NDBC,ioos:station:wmo:42003:1,2017-04-01T18:50:00Z,26.0070,-85.6480,5.0,7.0,90.0,8.0,'1111122,1111122,1111122' 
NDBC,ioos:station:wmo:42003:1,2017-04-01T19:40:00Z,26.0070,-85.6480,5.0,7.0,90.0,8.0,'1111122,1111122,1111122' 
NDBC,ioos:station:wmo:42003:1,2017-04-01T20:40:00Z,26.0070,-85.6480,5.0,7.0,90.0,8.0,'1111122,1111122,1111122' 
NDBC,ioos:station:wmo:42003:1,2017-04-01T21:40:00Z,26.0070,-85.6480,5.0,7.0,90.0,8.0,'1111122,1111122,1111122' 
NDBC,ioos:station:wmo:42003:1,2017-04-01T22:30:00Z,26.0070,-85.6480,5.0,8.0,90.0,9.0,'1111122,1111122,1111122' 
NDBC,ioos:station:wmo:42003:1,2017-04-01T23:40:00Z,26.0070,-85.6480,5.0,7.0,90.0,8.0,'1111122,1111122,1111122' 
NDBC,ioos:station:wmo:42003:1,2017-04-02T00:40:00Z,26.0070,-85.6480,5.0,7.0,90.0,8.0,'1111122,1111122,1111122' 
NDBC,ioos:station:wmo:42003:1,2017-04-02T01:10:00Z,26.0070,-85.6480,5.0,7.0,90.0,8.0,'1111122,1111122,1111122' 
NDBC,ioos:station:wmo:42003:1,2017-04-02T02:40:00Z,26.0070,-85.6480,5.0,6.0,100.0,8.0,'1111122,1111122,1111122' 
NDBC,ioos:station:wmo:42003:1,2017-04-02T03:40:00Z,26.0070,-85.6480,5.0,7.0,110.0,8.0,'1111122,1111122,1111122' 
NDBC,ioos:station:wmo:42003:1,2017-04-02T04:40:00Z,26.0070,-85.6480,5.0,6.0,110.0,7.0,'1111122,1111122,1111122' 
NDBC,ioos:station:wmo:42003:1,2017-04-02T05:40:00Z,26.0070,-85.6480,5.0,6.0,120.0,8.0,'1111122,1111122,1111122' 
NDBC,ioos:station:wmo:42003:1,2017-04-02T06:40:00Z,26.0070,-85.6480,5.0,6.0,120.0,8.0,'1111122,1111122,1111122' 
NDBC,ioos:station:wmo:42003:1,2017-04-02T07:40:00Z,26.0070,-85.6480,5.0,6.0,120.0,7.0,'1111122,1111122,1111122' 
NDBC,ioos:station:wmo:42003:1,2017-04-02T08:40:00Z,26.0070,-85.6480,5.0,6.0,130.0,7.0,'1111122,1111122,1111122' 
NDBC,ioos:station:wmo:42003:1,2017-04-02T09:40:00Z,26.0070,-85.6480,5.0,6.0,130.0,7.0,'1111122,1111122,1111122' 
NDBC,ioos:station:wmo:42003:1,2017-04-02T10:40:00Z,26.0070,-85.6480,5.0,5.0,120.0,6.0,'1111122,1111122,1111122' 
NDBC,ioos:station:wmo:42003:1,2017-04-02T11:40:00Z,26.0070,-85.6480,5.0,5.0,120.0,6.0,'1111122,1111122,1111122' 
NDBC,ioos:station:wmo:42003:1,2017-04-02T12:40:00Z,26.0070,-85.6480,5.0,6.0,120.0,7.0,'1111122,1111122,1111122' 
NDBC,ioos:station:wmo:42003:1,2017-04-02T13:40:00Z,26.0070,-85.6480,5.0,6.0,110.0,7.0,'1111122,1111122,1111122' 
NDBC,ioos:station:wmo:42003:1,2017-04-02T14:40:00Z,26.0070,-85.6480,5.0,5.0,110.0,6.0,'1111122,1111122,1111122' 
NDBC,ioos:station:wmo:42003:1,2017-04-02T15:40:00Z,26.0070,-85.6480,5.0,5.0,100.0,6.0,'1111122,1111122,1111122' 
NDBC,ioos:station:wmo:42003:1,2017-04-02T16:50:00Z,26.0070,-85.6480,5.0,5.0,110.0,6.0,'1111122,1111122,1111122' 
NDBC,ioos:station:wmo:42003:1,2017-04-02T17:40:00Z,26.0070,-85.6480,5.0,6.0,110.0,7.0,'1111122,1111122,1111122' 
NDBC,ioos:station:wmo:42003:1,2017-04-02T18:40:00Z,26.0070,-85.6480,5.0,7.0,110.0,9.0,'1111122,1111122,1111122' 
NDBC,ioos:station:wmo:42003:1,2017-04-02T19:40:00Z,26.0070,-85.6480,5.0,7.0,110.0,9.0,'1111122,1111122,1111122' 
NDBC,ioos:station:wmo:42003:1,2017-04-02T20:40:00Z,26.0070,-85.6480,5.0,6.0,110.0,8.0,'1111122,1111122,1111122' 
NDBC,ioos:station:wmo:42003:1,2017-04-02T21:40:00Z,26.0070,-85.6480,5.0,7.0,120.0,8.0,'1111122,1111122,1111122' 
NDBC,ioos:station:wmo:42003:1,2017-04-02T22:40:00Z,26.0070,-85.6480,5.0,6.0,120.0,8.0,'1111122,1111122,1111122' 
NDBC,ioos:station:wmo:42003:1,2017-04-02T23:40:00Z,26.0070,-85.6480,5.0,6.0,120.0,8.0,'1111122,1111122,1111122' 
NDBC,ioos:station:wmo:42003:1,2017-04-03T00:40:00Z,26.0070,-85.6480,5.0,6.0,130.0,8.0,'1111122,1111122,1111122' 
NDBC,ioos:station:wmo:42003:1,2017-04-03T01:10:00Z,26.0070,-85.6480,5.0,6.0,120.0,7.0,'1111122,1111122,1111122' 
NDBC,ioos:station:wmo:42003:1,2017-04-03T02:40:00Z,26.0070,-85.6480,5.0,6.0,130.0,8.0,'1111122,1111122,1111122' 
NDBC,ioos:station:wmo:42003:1,2017-04-03T03:40:00Z,26.0070,-85.6480,5.0,6.0,130.0,8.0,'1111122,1111122,1111122' 
NDBC,ioos:station:wmo:42003:1,2017-04-03T04:40:00Z,26.0070,-85.6480,5.0,6.0,120.0,8.0,'1111122,1111122,1111122' 
NDBC,ioos:station:wmo:42003:1,2017-04-03T05:40:00Z,26.0070,-85.6480,5.0,7.0,130.0,9.0,'1111122,1111122,1111122' 
NDBC,ioos:station:wmo:42003:1,2017-04-03T06:40:00Z,26.0070,-85.6480,5.0,8.0,130.0,9.0,'1111122,1111122,1111122' 
NDBC,ioos:station:wmo:42003:1,2017-04-03T07:40:00Z,26.0070,-85.6480,5.0,8.0,140.0,10.0,'1111122,1111122,1111122' 
NDBC,ioos:station:wmo:42003:1,2017-04-03T08:40:00Z,26.0070,-85.6480,5.0,8.0,140.0,9.0,'1111122,1111122,1111122' 
NDBC,ioos:station:wmo:42003:1,2017-04-03T09:40:00Z,26.0070,-85.6480,5.0,8.0,140.0,9.0,'1111122,1111122,1111122' 
NDBC,ioos:station:wmo:42003:1,2017-04-03T10:40:00Z,26.0070,-85.6480,5.0,7.0,150.0,8.0,'1111122,1111122,1111122' 
NDBC,ioos:station:wmo:42003:1,2017-04-03T11:40:00Z,26.0070,-85.6480,5.0,7.0,150.0,8.0,'1111122,1111122,1111122' 
NDBC,ioos:station:wmo:42003:1,2017-04-03T12:40:00Z,26.0070,-85.6480,5.0,7.0,150.0,8.0,'1111122,1111122,1111122' 
NDBC,ioos:station:wmo:42003:1,2017-04-03T13:40:00Z,26.0070,-85.6480,5.0,7.0,150.0,8.0,'1111122,1111122,1111122' 
NDBC,ioos:station:wmo:42003:1,2017-04-03T14:40:00Z,26.0070,-85.6480,5.0,9.0,150.0,11.0,'1111122,1111122,1111122' 
NDBC,ioos:station:wmo:42003:1,2017-04-03T15:50:00Z,26.0070,-85.6480,5.0,8.0,160.0,11.0,'1111122,1111122,1111122' 
NDBC,ioos:station:wmo:42003:1,2017-04-03T16:30:00Z,26.0070,-85.6480,5.0,7.0,160.0,9.0,'1111122,1111122,1111122' 
NDBC,ioos:station:wmo:42003:1,2017-04-03T17:40:00Z,26.0070,-85.6480,5.0,6.0,170.0,7.0,'1111122,1111122,1111122' 
NDBC,ioos:station:wmo:42003:1,2017-04-03T18:40:00Z,26.0070,-85.6480,5.0,6.0,170.0,8.0,'1111122,1111122,1111122' 
NDBC,ioos:station:wmo:42003:1,2017-04-03T19:40:00Z,26.0070,-85.6480,5.0,7.0,170.0,9.0,'1111122,1111122,1111122' 
NDBC,ioos:station:wmo:42003:1,2017-04-03T20:40:00Z,26.0070,-85.6480,5.0,6.0,180.0,8.0,'1111122,1111122,1111122' 
NDBC,ioos:station:wmo:42003:1,2017-04-03T21:30:00Z,26.0070,-85.6480,5.0,7.0,180.0,8.0,'1111122,1111122,1111122' 
NDBC,ioos:station:wmo:42003:1,2017-04-03T22:30:00Z,26.0070,-85.6480,5.0,5.0,180.0,7.0,'1111122,1111122,1111122' 
NDBC,ioos:station:wmo:42003:1,2017-04-04T00:40:00Z,26.0070,-85.6480,5.0,4.0,170.0,6.0,'1111122,1111122,1111122' 
NDBC,ioos:station:wmo:42003:1,2017-04-04T01:20:00Z,26.0070,-85.6480,5.0,5.0,160.0,6.0,'1111122,1111122,1111122' 
NDBC,ioos:station:wmo:42003:1,2017-04-04T02:50:00Z,26.0070,-85.6480,5.0,7.0,150.0,8.0,'1111122,1111122,1111122' 
NDBC,ioos:station:wmo:42003:1,2017-04-04T03:40:00Z,26.0070,-85.6480,5.0,6.0,150.0,8.0,'1111122,1111122,1111122' 
NDBC,ioos:station:wmo:42003:1,2017-04-04T04:40:00Z,26.0070,-85.6480,5.0,6.0,150.0,7.0,'1111122,1111122,1111122' 
NDBC,ioos:station:wmo:42003:1,2017-04-04T05:40:00Z,26.0070,-85.6480,5.0,6.0,160.0,7.0,'1111122,1111122,1111122' 
NDBC,ioos:station:wmo:42003:1,2017-04-04T06:40:00Z,26.0070,-85.6480,5.0,5.0,160.0,6.0,'1111122,1111122,1111122' 
NDBC,ioos:station:wmo:42003:1,2017-04-04T07:40:00Z,26.0070,-85.6480,5.0,4.0,160.0,6.0,'1111122,1111122,1111122' 
NDBC,ioos:station:wmo:42003:1,2017-04-04T08:40:00Z,26.0070,-85.6480,5.0,6.0,170.0,8.0,'1111122,1111122,1111122' 
NDBC,ioos:station:wmo:42003:1,2017-04-04T09:50:00Z,26.0070,-85.6480,5.0,6.0,180.0,8.0,'1111122,1111122,1111122' 
NDBC,ioos:station:wmo:42003:1,2017-04-04T10:40:00Z,26.0070,-85.6480,5.0,6.0,180.0,7.0,'1111122,1111122,1111122' 
NDBC,ioos:station:wmo:42003:1,2017-04-04T11:40:00Z,26.0070,-85.6480,5.0,6.0,180.0,7.0,'1111122,1111122,1111122' 
NDBC,ioos:station:wmo:42003:1,2017-04-04T12:40:00Z,26.0070,-85.6480,5.0,5.0,180.0,6.0,'1111122,1111122,1111122' 
NDBC,ioos:station:wmo:42003:1,2017-04-04T13:50:00Z,26.0070,-85.6480,5.0,5.0,190.0,6.0,'1111122,1111122,1111122' 
NDBC,ioos:station:wmo:42003:1,2017-04-04T14:40:00Z,26.0070,-85.6480,5.0,4.0,180.0,6.0,'1111122,1111122,1111122' 
NDBC,ioos:station:wmo:42003:1,2017-04-04T15:40:00Z,26.0070,-85.6480,5.0,5.0,170.0,6.0,'1111122,1111122,1111122' 
NDBC,ioos:station:wmo:42003:1,2017-04-04T16:40:00Z,26.0070,-85.6480,5.0,5.0,170.0,6.0,'1111122,1111122,1111122' 
NDBC,ioos:station:wmo:42003:1,2017-04-04T17:40:00Z,26.0070,-85.6480,5.0,5.0,170.0,6.0,'1111122,1111122,1111122' 
NDBC,ioos:station:wmo:42003:1,2017-04-04T18:40:00Z,26.0070,-85.6480,5.0,5.0,170.0,7.0,'1111122,1111122,1111122' 
NDBC,ioos:station:wmo:42003:1,2017-04-04T19:40:00Z,26.0070,-85.6480,5.0,5.0,170.0,7.0,'1111122,1111122,1111122' 
NDBC,ioos:station:wmo:42003:1,2017-04-04T20:40:00Z,26.0070,-85.6480,5.0,4.0,180.0,6.0,'1111122,1111122,1111122' 
NDBC,ioos:station:wmo:42003:1,2017-04-04T21:40:00Z,26.0070,-85.6480,5.0,4.0,180.0,5.0,'1111122,1111122,1111122' 
NDBC,ioos:station:wmo:42003:1,2017-04-04T22:30:00Z,26.0070,-85.6480,5.0,5.0,170.0,7.0,'1111122,1111122,1111122' 
NDBC,ioos:station:wmo:42003:1,2017-04-06T14:40:00Z,26.0070,-85.6480,5.0,11.0,360.0,13.0,'1111122,1111122,1111122' 
NDBC,ioos:station:wmo:42003:1,2017-04-06T15:40:00Z,26.0070,-85.6480,5.0,10.0,350.0,12.0,'1111122,1111122,1111122' 
NDBC,ioos:station:wmo:42003:1,2017-04-06T16:40:00Z,26.0070,-85.6480,5.0,9.0,360.0,12.0,'1111122,1111122,1111122' 
NDBC,ioos:station:wmo:42003:1,2017-04-06T17:40:00Z,26.0070,-85.6480,5.0,8.0,350.0,12.0,'1111122,1111122,1111122' 
NDBC,ioos:station:wmo:42003:1,2017-04-06T18:40:00Z,26.0070,-85.6480,5.0,8.0,360.0,10.0,'1111122,1111122,1111122' 
NDBC,ioos:station:wmo:42003:1,2017-04-06T19:40:00Z,26.0070,-85.6480,5.0,7.0,350.0,9.0,'1111122,1111122,1111122' 
NDBC,ioos:station:wmo:42003:1,2017-04-06T20:40:00Z,26.0070,-85.6480,5.0,7.0,350.0,9.0,'1111122,1111122,1111122' 
NDBC,ioos:station:wmo:42003:1,2017-04-06T21:40:00Z,26.0070,-85.6480,5.0,7.0,340.0,9.0,'1111122,1111122,1111122' 
NDBC,ioos:station:wmo:42003:1,2017-04-06T22:30:00Z,26.0070,-85.6480,5.0,7.0,340.0,9.0,'1111122,1111122,1111122' 
NDBC,ioos:station:wmo:42003:1,2017-04-06T23:40:00Z,26.0070,-85.6480,5.0,8.0,330.0,10.0,'1111122,1111122,1111122' 
NDBC,ioos:station:wmo:42003:1,2017-04-07T00:40:00Z,26.0070,-85.6480,5.0,7.0,330.0,11.0,'1111122,1111122,1111122' 
NDBC,ioos:station:wmo:42003:1,2017-04-07T01:10:00Z,26.0070,-85.6480,5.0,7.0,330.0,10.0,'1111122,1111122,1111122' 
NDBC,ioos:station:wmo:42003:1,2017-04-07T02:40:00Z,26.0070,-85.6480,5.0,8.0,330.0,10.0,'1111122,1111122,1111122' 
NDBC,ioos:station:wmo:42003:1,2017-04-07T03:40:00Z,26.0070,-85.6480,5.0,8.0,330.0,11.0,'1111122,1111122,1111122' 
NDBC,ioos:station:wmo:42003:1,2017-04-07T04:30:00Z,26.0070,-85.6480,5.0,9.0,330.0,13.0,'1111122,1111122,1111122' 
NDBC,ioos:station:wmo:42003:1,2017-04-07T05:30:00Z,26.0070,-85.6480,5.0,9.0,340.0,12.0,'1111122,1111122,1111122' 
NDBC,ioos:station:wmo:42003:1,2017-04-07T06:40:00Z,26.0070,-85.6480,5.0,8.0,340.0,10.0,'1111122,1111122,1111122' 
NDBC,ioos:station:wmo:42003:1,2017-04-07T07:40:00Z,26.0070,-85.6480,5.0,8.0,340.0,12.0,'1111122,1111122,1111122' 
NDBC,ioos:station:wmo:42003:1,2017-04-07T08:40:00Z,26.0070,-85.6480,5.0,9.0,340.0,11.0,'1111122,1111122,1111122' 
NDBC,ioos:station:wmo:42003:1,2017-04-07T09:40:00Z,26.0070,-85.6480,5.0,9.0,340.0,12.0,'1111122,1111122,1111122' 
NDBC,ioos:station:wmo:42003:1,2017-04-07T10:40:00Z,26.0070,-85.6480,5.0,9.0,340.0,11.0,'1111122,1111122,1111122' 
NDBC,ioos:station:wmo:42003:1,2017-04-07T11:40:00Z,26.0070,-85.6480,5.0,8.0,350.0,11.0,'1111122,1111122,1111122' 
NDBC,ioos:station:wmo:42003:1,2017-04-07T12:40:00Z,26.0070,-85.6480,5.0,8.0,360.0,12.0,'1111122,1111122,1111122' 
NDBC,ioos:station:wmo:42003:1,2017-04-07T13:30:00Z,26.0070,-85.6480,5.0,8.0,360.0,11.0,'1111122,1111122,1111122' 
NDBC,ioos:station:wmo:42003:1,2017-04-07T14:40:00Z,26.0070,-85.6480,5.0,9.0,10.0,11.0,'1111122,1111122,1111122' 
NDBC,ioos:station:wmo:42003:1,2017-04-07T15:40:00Z,26.0070,-85.6480,5.0,9.0,10.0,11.0,'1111122,1111122,1111122' 
NDBC,ioos:station:wmo:42003:1,2017-04-07T16:30:00Z,26.0070,-85.6480,5.0,7.0,10.0,10.0,'1111122,1111122,1111122' 
NDBC,ioos:station:wmo:42003:1,2017-04-07T17:40:00Z,26.0070,-85.6480,5.0,7.0,10.0,9.0,'1111122,1111122,1111122' 
NDBC,ioos:station:wmo:42003:1,2017-04-07T18:40:00Z,26.0070,-85.6480,5.0,6.0,360.0,9.0,'1111122,1111122,1111122' 
NDBC,ioos:station:wmo:42003:1,2017-04-07T19:50:00Z,26.0070,-85.6480,5.0,6.0,10.0,8.0,'1111122,1111122,1111122' 
NDBC,ioos:station:wmo:42003:1,2017-04-07T20:40:00Z,26.0070,-85.6480,5.0,6.0,350.0,8.0,'1111122,1111122,1111122' 
NDBC,ioos:station:wmo:42003:1,2017-04-07T21:40:00Z,26.0070,-85.6480,5.0,5.0,360.0,8.0,'1111122,1111122,1111122' 
NDBC,ioos:station:wmo:42003:1,2017-04-07T22:30:00Z,26.0070,-85.6480,5.0,5.0,340.0,7.0,'1111122,1111122,1111122' 
NDBC,ioos:station:wmo:42003:1,2017-04-07T23:30:00Z,26.0070,-85.6480,5.0,6.0,350.0,8.0,'1111122,1111122,1111122' 
NDBC,ioos:station:wmo:42003:1,2017-04-08T00:40:00Z,26.0070,-85.6480,5.0,5.0,340.0,8.0,'1111122,1111122,1111122' 
NDBC,ioos:station:wmo:42003:1,2017-04-08T01:00:00Z,26.0070,-85.6480,5.0,6.0,360.0,7.0,'1111122,1111122,1111122' 
NDBC,ioos:station:wmo:42003:1,2017-04-08T02:40:00Z,26.0070,-85.6480,5.0,5.0,340.0,8.0,'1111122,1111122,1111122' 
NDBC,ioos:station:wmo:42003:1,2017-04-08T03:40:00Z,26.0070,-85.6480,5.0,5.0,10.0,7.0,'1111122,1111122,1111122' 
NDBC,ioos:station:wmo:42003:1,2017-04-08T04:30:00Z,26.0070,-85.6480,5.0,5.0,340.0,8.0,'1111122,1111122,1111122' 
NDBC,ioos:station:wmo:42003:1,2017-04-08T05:40:00Z,26.0070,-85.6480,5.0,5.0,350.0,8.0,'1111122,1111122,1111122' 
NDBC,ioos:station:wmo:42003:1,2017-04-08T06:40:00Z,26.0070,-85.6480,5.0,6.0,330.0,8.0,'1111122,1111122,1111122' 
NDBC,ioos:station:wmo:42003:1,2017-04-08T07:40:00Z,26.0070,-85.6480,5.0,6.0,360.0,8.0,'1111122,1111122,1111122' 
NDBC,ioos:station:wmo:42003:1,2017-04-08T08:40:00Z,26.0070,-85.6480,5.0,5.0,10.0,7.0,'1111122,1111122,1111122' 
NDBC,ioos:station:wmo:42003:1,2017-04-08T09:40:00Z,26.0070,-85.6480,5.0,5.0,10.0,7.0,'1111122,1111122,1111122' 
NDBC,ioos:station:wmo:42003:1,2017-04-08T10:30:00Z,26.0070,-85.6480,5.0,5.0,10.0,7.0,'1111122,1111122,1111122' 
NDBC,ioos:station:wmo:42003:1,2017-04-08T11:40:00Z,26.0070,-85.6480,5.0,5.0,30.0,7.0,'1111122,1111122,1111122' 
NDBC,ioos:station:wmo:42003:1,2017-04-08T12:30:00Z,26.0070,-85.6480,5.0,5.0,30.0,7.0,'1111122,1111122,1111122' 
NDBC,ioos:station:wmo:42003:1,2017-04-08T13:20:00Z,26.0070,-85.6480,5.0,4.0,30.0,6.0,'1111122,1111122,1111122' 
NDBC,ioos:station:wmo:42003:1,2017-04-08T14:40:00Z,26.0070,-85.6480,5.0,4.0,40.0,6.0,'1111122,1111122,1111122' 
NDBC,ioos:station:wmo:42003:1,2017-04-08T15:40:00Z,26.0070,-85.6480,5.0,4.0,50.0,5.0,'1111122,1111122,1111122' 
NDBC,ioos:station:wmo:42003:1,2017-04-08T16:40:00Z,26.0070,-85.6480,5.0,3.0,30.0,5.0,'1111122,1111122,1111122' 
NDBC,ioos:station:wmo:42003:1,2017-04-08T17:40:00Z,26.0070,-85.6480,5.0,2.0,40.0,4.0,'1111122,1111122,1111122' 
NDBC,ioos:station:wmo:42003:1,2017-04-08T18:40:00Z,26.0070,-85.6480,5.0,3.0,350.0,4.0,'1111122,1111122,1111122' 
NDBC,ioos:station:wmo:42003:1,2017-04-08T19:30:00Z,26.0070,-85.6480,5.0,2.0,10.0,4.0,'1111122,1111122,1111122' 
NDBC,ioos:station:wmo:42003:1,2017-04-08T20:40:00Z,26.0070,-85.6480,5.0,4.0,20.0,5.0,'1111122,1111122,1111122' 
NDBC,ioos:station:wmo:42003:1,2017-04-08T21:40:00Z,26.0070,-85.6480,5.0,2.0,20.0,4.0,'1111122,1111122,1111122' 
NDBC,ioos:station:wmo:42003:1,2017-04-08T22:30:00Z,26.0070,-85.6480,5.0,2.0,30.0,4.0,'1111122,1111122,1111122' 
NDBC,ioos:station:wmo:42003:1,2017-04-08T23:40:00Z,26.0070,-85.6480,5.0,2.0,20.0,4.0,'1111122,1111122,1111122' 
NDBC,ioos:station:wmo:42003:1,2017-04-09T00:40:00Z,26.0070,-85.6480,5.0,4.0,10.0,6.0,'1111122,1111122,1111122' 
NDBC,ioos:station:wmo:42003:1,2017-04-09T01:40:00Z,26.0070,-85.6480,5.0,5.0,10.0,8.0,'1111122,1111122,1111122' 
NDBC,ioos:station:wmo:42003:1,2017-04-09T02:40:00Z,26.0070,-85.6480,5.0,6.0,20.0,7.0,'1111122,1111122,1111122' 
NDBC,ioos:station:wmo:42003:1,2017-04-09T03:40:00Z,26.0070,-85.6480,5.0,4.0,40.0,7.0,'1111122,1111122,1111122' 
NDBC,ioos:station:wmo:42003:1,2017-04-09T04:40:00Z,26.0070,-85.6480,5.0,3.0,30.0,5.0,'1111122,1111122,1111122' 
NDBC,ioos:station:wmo:42003:1,2017-04-09T05:40:00Z,26.0070,-85.6480,5.0,4.0,40.0,5.0,'1111122,1111122,1111122' 
NDBC,ioos:station:wmo:42003:1,2017-04-09T06:40:00Z,26.0070,-85.6480,5.0,3.0,60.0,5.0,'1111122,1111122,1111122' 
NDBC,ioos:station:wmo:42003:1,2017-04-09T07:40:00Z,26.0070,-85.6480,5.0,3.0,60.0,5.0,'1111122,1111122,1111122' 
NDBC,ioos:station:wmo:42003:1,2017-04-09T08:40:00Z,26.0070,-85.6480,5.0,5.0,50.0,7.0,'1111122,1111122,1111122' 
NDBC,ioos:station:wmo:42003:1,2017-04-09T09:40:00Z,26.0070,-85.6480,5.0,4.0,60.0,5.0,'1111122,1111122,1111122' 
NDBC,ioos:station:wmo:42003:1,2017-04-09T10:40:00Z,26.0070,-85.6480,5.0,3.0,60.0,5.0,'1111122,1111122,1111122' 
NDBC,ioos:station:wmo:42003:1,2017-04-09T11:40:00Z,26.0070,-85.6480,5.0,4.0,70.0,6.0,'1111122,1111122,1111122' 
NDBC,ioos:station:wmo:42003:1,2017-04-09T12:40:00Z,26.0070,-85.6480,5.0,3.0,60.0,5.0,'1111122,1111122,1111122' 
NDBC,ioos:station:wmo:42003:1,2017-04-09T13:40:00Z,26.0070,-85.6480,5.0,4.0,80.0,6.0,'1111122,1111122,1111122' 
NDBC,ioos:station:wmo:42003:1,2017-04-09T14:40:00Z,26.0070,-85.6480,5.0,5.0,70.0,7.0,'1111122,1111122,1111122' 
NDBC,ioos:station:wmo:42003:1,2017-04-09T15:40:00Z,26.0070,-85.6480,5.0,6.0,70.0,8.0,'1111122,1111122,1111122' 
NDBC,ioos:station:wmo:42003:1,2017-04-09T16:40:00Z,26.0070,-85.6480,5.0,5.0,70.0,7.0,'1111122,1111122,1111122' 
NDBC,ioos:station:wmo:42003:1,2017-04-09T17:40:00Z,26.0070,-85.6480,5.0,5.0,80.0,7.0,'1111122,1111122,1111122' 
NDBC,ioos:station:wmo:42003:1,2017-04-09T18:40:00Z,26.0070,-85.6480,5.0,5.0,70.0,6.0,'1111122,1111122,1111122' 
NDBC,ioos:station:wmo:42003:1,2017-04-09T19:40:00Z,26.0070,-85.6480,5.0,5.0,70.0,7.0,'1111122,1111122,1111122' 
NDBC,ioos:station:wmo:42003:1,2017-04-09T20:40:00Z,26.0070,-85.6480,5.0,6.0,70.0,8.0,'1111122,1111122,1111122' 
NDBC,ioos:station:wmo:42003:1,2017-04-09T21:40:00Z,26.0070,-85.6480,5.0,6.0,70.0,8.0,'1111122,1111122,1111122' 
NDBC,ioos:station:wmo:42003:1,2017-04-09T22:40:00Z,26.0070,-85.6480,5.0,6.0,70.0,8.0,'1111122,1111122,1111122' 
NDBC,ioos:station:wmo:42003:1,2017-04-09T23:40:00Z,26.0070,-85.6480,5.0,7.0,70.0,9.0,'1111122,1111122,1111122' 
NDBC,ioos:station:wmo:42003:1,2017-04-10T00:30:00Z,26.0070,-85.6480,5.0,7.0,70.0,9.0,'1111122,1111122,1111122' 
NDBC,ioos:station:wmo:42003:1,2017-04-10T01:20:00Z,26.0070,-85.6480,5.0,7.0,70.0,8.0,'1111122,1111122,1111122' 
NDBC,ioos:station:wmo:42003:1,2017-04-10T02:40:00Z,26.0070,-85.6480,5.0,7.0,80.0,9.0,'1111122,1111122,1111122' 
NDBC,ioos:station:wmo:42003:1,2017-04-10T03:50:00Z,26.0070,-85.6480,5.0,7.0,90.0,10.0,'1111122,1111122,1111122' 
NDBC,ioos:station:wmo:42003:1,2017-04-10T04:30:00Z,26.0070,-85.6480,5.0,7.0,90.0,9.0,'1111122,1111122,1111122' 
NDBC,ioos:station:wmo:42003:1,2017-04-10T05:50:00Z,26.0070,-85.6480,5.0,8.0,100.0,10.0,'1111122,1111122,1111122' 
NDBC,ioos:station:wmo:42003:1,2017-04-10T06:40:00Z,26.0070,-85.6480,5.0,8.0,110.0,9.0,'1111122,1111122,1111122' 
NDBC,ioos:station:wmo:42003:1,2017-04-10T07:40:00Z,26.0070,-85.6480,5.0,8.0,90.0,10.0,'1111122,1111122,1111122' 
NDBC,ioos:station:wmo:42003:1,2017-04-10T08:40:00Z,26.0070,-85.6480,5.0,8.0,110.0,10.0,'1111122,1111122,1111122' 
NDBC,ioos:station:wmo:42003:1,2017-04-10T09:50:00Z,26.0070,-85.6480,5.0,8.0,100.0,9.0,'1111122,1111122,1111122' 
NDBC,ioos:station:wmo:42003:1,2017-04-10T10:40:00Z,26.0070,-85.6480,5.0,9.0,100.0,11.0,'1111122,1111122,1111122' 
NDBC,ioos:station:wmo:42003:1,2017-04-10T11:40:00Z,26.0070,-85.6480,5.0,7.0,110.0,9.0,'1111122,1111122,1111122' 
NDBC,ioos:station:wmo:42003:1,2017-04-10T12:30:00Z,26.0070,-85.6480,5.0,7.0,110.0,9.0,'1111122,1111122,1111122' 
NDBC,ioos:station:wmo:42003:1,2017-04-10T13:40:00Z,26.0070,-85.6480,5.0,9.0,100.0,11.0,'1111122,1111122,1111122' 
NDBC,ioos:station:wmo:42003:1,2017-04-10T14:40:00Z,26.0070,-85.6480,5.0,9.0,110.0,11.0,'1111122,1111122,1111122' 
NDBC,ioos:station:wmo:42003:1,2017-04-10T15:40:00Z,26.0070,-85.6480,5.0,10.0,100.0,12.0,'1111122,1111122,1111122' 
NDBC,ioos:station:wmo:42003:1,2017-04-10T16:40:00Z,26.0070,-85.6480,5.0,10.0,100.0,12.0,'1111122,1111122,1111122' 
NDBC,ioos:station:wmo:42003:1,2017-04-10T17:30:00Z,26.0070,-85.6480,5.0,10.0,110.0,13.0,'1111122,1111122,1111122' 
NDBC,ioos:station:wmo:42003:1,2017-04-10T18:40:00Z,26.0070,-85.6480,5.0,10.0,90.0,12.0,'1111122,1111122,1111122' 
NDBC,ioos:station:wmo:42003:1,2017-04-10T19:40:00Z,26.0070,-85.6480,5.0,9.0,90.0,11.0,'1111122,1111122,1111122' 
NDBC,ioos:station:wmo:42003:1,2017-04-10T20:40:00Z,26.0070,-85.6480,5.0,9.0,80.0,10.0,'1111122,1111122,1111122' 
NDBC,ioos:station:wmo:42003:1,2017-04-10T21:40:00Z,26.0070,-85.6480,5.0,8.0,80.0,9.0,'1111122,1111122,1111122' 
NDBC,ioos:station:wmo:42003:1,2017-04-10T22:40:00Z,26.0070,-85.6480,5.0,7.0,80.0,10.0,'1111122,1111122,1111122' 
NDBC,ioos:station:wmo:42003:1,2017-04-10T23:40:00Z,26.0070,-85.6480,5.0,7.0,80.0,9.0,'1111122,1111122,1111122' 
NDBC,ioos:station:wmo:42003:1,2017-04-11T00:30:00Z,26.0070,-85.6480,5.0,7.0,90.0,9.0,'1111122,1111122,1111122' 
NDBC,ioos:station:wmo:42003:1,2017-04-11T01:20:00Z,26.0070,-85.6480,5.0,7.0,100.0,8.0,'1111122,1111122,1111122' 
NDBC,ioos:station:wmo:42003:1,2017-04-11T03:40:00Z,26.0070,-85.6480,5.0,6.0,90.0,8.0,'1111122,1111122,1111122' 
NDBC,ioos:station:wmo:42003:1,2017-04-11T04:40:00Z,26.0070,-85.6480,5.0,6.0,90.0,8.0,'1111122,1111122,1111122' 
NDBC,ioos:station:wmo:42003:1,2017-04-11T05:40:00Z,26.0070,-85.6480,5.0,6.0,100.0,7.0,'1111122,1111122,1111122' 
NDBC,ioos:station:wmo:42003:1,2017-04-11T06:40:00Z,26.0070,-85.6480,5.0,8.0,70.0,10.0,'1111122,1111122,1111122' 
NDBC,ioos:station:wmo:42003:1,2017-04-11T07:40:00Z,26.0070,-85.6480,5.0,8.0,80.0,10.0,'1111122,1111122,1111122' 
NDBC,ioos:station:wmo:42003:1,2017-04-11T08:40:00Z,26.0070,-85.6480,5.0,8.0,70.0,10.0,'1111122,1111122,1111122' 
NDBC,ioos:station:wmo:42003:1,2017-04-11T09:40:00Z,26.0070,-85.6480,5.0,7.0,70.0,9.0,'1111122,1111122,1111122' 
NDBC,ioos:station:wmo:42003:1,2017-04-11T10:40:00Z,26.0070,-85.6480,5.0,7.0,60.0,9.0,'1111122,1111122,1111122' 
NDBC,ioos:station:wmo:42003:1,2017-04-11T11:40:00Z,26.0070,-85.6480,5.0,7.0,90.0,8.0,'1111122,1111122,1111122' 